sat.trackr.live / text

‹ back to catalog

STARLINK-11610 [DTC]

NORAD 63135 · 2025-043D

PAYLOAD ACTIVE UNKNOWN

§ Identity

Operator
Country
US
Launch date
2025-03-03
Launch site
AFETR
Launch vehicle
Mass (kg)
RCS (m²)

Purposes: comms

External: N2YO · Heavens-Above · Gunter

§ Orbital elements

Epoch: 2026-09-20T23:33:29.170368Z

Period
91.68 min
Inclination
43.0003°
Eccentricity
0.0001371
Mean motion
15.70701538 rev/d
Perigee alt
356.0 km
Apogee alt
357.8 km
Semi-major
6,735.0 km
B*
2.6764e-3
RAAN
153.8149°
Arg perigee
275.1920°
Mean anomaly
84.8791°
Rev number
9,006

§ Raw data

STARLINK-11610 [DTC]1 63135U 25043D   26263.98158762  .00356027  00000+0  26764-2 0  99962 63135  43.0003 153.8149 0001371 275.1920  84.8791 15.70701538 90068

JSON: /api/v1/satellites/63135 · /tle

For live sub-satellite position, see the globe view (requires WebGL).

§ Visibility from observer

Set your observer location to see the next 7 days of passes ≥ 10°. The values pass through the URL so the page stays shareable.

No JS? Fill the form by hand. The geolocation button needs JavaScript.